Miscellaneous Local Product
Issued by NWS North Platte, NE

Home | Current Version | Previous Version | Text Only | Print | Product List | Glossary On
Versions: 1 2 3 4 5 6 7 8 9 10 11 12 13 14 15 16 17 18 19 20 21 22 23 24 25 26 27 28 29 30 31 32 33 34 35 36 37 38 39 40 41 42 43 44 45 46 47 48 49 50
283
AXUS43 KLBF 192110
MISLBF


WESTERN AND NORTH CENTRAL NEBRASKA HOURLY WEATHER ROUNDUP
NATIONAL WEATHER SERVICE NORTH PLATTE NE
400 PM CDT THU OCT 19 2017

NOTE: "FAIR" INDICATES FEW OR NO CLOUDS BELOW 12,000 FEET WITH NO
SIGNIFICANT WEATHER AND/OR OBSTRUCTIONS TO VISIBILITY.

NOTE: STATIONS NOT REPORTING VARIABLES SUCH AS SKY/WEATHER OR
PRESSURE ARE PROVIDED BY RAWS AND APRS NETWORKS AND ARE NOT UNDER
NATIONAL WEATHER SERVICE QUALITY CONTROL.

...OBSERVATIONS IN AND NEAR THE EASTERN PANHANDLE OF NEBRASKA...

CITY           SKY/WX    TMP DP  RH WIND       PRES   REMARKS
PINE RIDGE     SUNNY     84  22  10 S14       29.83F
GORDON         FAIR      84  21  10 SW12      29.85F
CHADRON        SUNNY     86  15   7 S17       29.80F
ALLIANCE       SUNNY     82  31  15 S13       29.87F
SIDNEY         SUNNY     84  27  12 S22G31    29.90F
CRESCENT LAKE    N/A     82  33  17 S9G17       N/A
$$

...OBSERVATIONS IN NORTHERN NEBRASKA AND FAR SOUTHERN SOUTH DAKOTA...

CITY           SKY/WX    TMP DP  RH WIND       PRES   REMARKS
WINNER         FAIR      84  42  22 S18G25    29.81F
VALENTINE      SUNNY     87  35  15 S22G29    29.83F
THEDFORD       SUNNY     82  40  22 S15G23    29.91F
AINSWORTH      SUNNY     79  42  27 S20G26    29.88F
O`NEILL        SUNNY     77  46  34 S14G20    29.91F
ORD            SUNNY     79  44  28 S13       29.92F
BROKEN BOW     SUNNY     79  47  32 S16       29.93F
VALENTINE NWR    N/A     82  36  19 S16G23      N/A
HALSEY           N/A     79  42  26 S9G16       N/A
BUTTE            N/A     78  45  30 S17G26      N/A
CHAMBERS         N/A     76  46  34 S8          N/A
EWING            N/A     78  48  34 S8          N/A
$$

...OBSERVATIONS IN SOUTHWEST NEBRASKA AND FAR NORTHEAST COLORADO...

CITY           SKY/WX    TMP DP  RH WIND       PRES   REMARKS
HOLYOKE        FAIR      86  32  14 S15G25    29.90F
IMPERIAL       SUNNY     84  36  18 S21       29.91F
OGALLALA       SUNNY     83  39  20 S17G25    29.89F
NORTH PLATTE   SUNNY     79  47  32 S20       29.92F
MCCOOK         SUNNY     83  46  27 S18G29    29.92F
LEXINGTON      SUNNY     79  48  32 S12       29.94F
STAPLETON        N/A     78  47  33 CALM        N/A
GOTHENBURG       N/A     78  45  30 S9          N/A
CALLAWAY         N/A     79  49  34 S12         N/A
$$

...OBSERVATIONS IN CENTRAL LINCOLN COUNTY AREA...

CITY           SKY/WX    TMP DP  RH WIND       PRES   REMARKS
N.P. AIRPORT   SUNNY     79  47  32 S20       29.92F
N.P. DOWNTOWN    N/A     78  49  35 S3G15       N/A
N.P. SOUTHEAST   N/A     78  48  34 S9          N/A
N.P. HILLCREST   N/A     79  47  32 S14G21      N/A
$$

...SOME OBSERVATIONS FROM AROUND THE REGION...

CITY           SKY/WX    TMP DP  RH WIND       PRES   REMARKS
DENVER         PTSUNNY   74  29  19 NE9       29.94F
LIMON          MOSUNNY   73  24  16 S17G23    30.00F
ASPEN          PTSUNNY   67  21  17 N8        30.08F
LARAMIE        MOSUNNY   67  16  14 W14G22    30.04F
CASPER         MOSUNNY   72  15  11 SW25G32   29.89F
CHEYENNE       MOSUNNY   73  15  11 S6        29.98F
SCOTTSBLUFF    SUNNY     81  29  15 SE5       29.86F
GRAND ISLAND   SUNNY     80  49  33 SE13      29.95F
OMAHA          SUNNY     78  52  40 S13       29.98F
SIOUX FALLS    MOSUNNY   74  52  46 S16       29.91F
PIERRE         SUNNY     83  35  18 S13       29.74F
RAPID CITY     SUNNY     85  16   7 S18       29.75F
BISMARCK       SUNNY     78  39  24 SE13      29.71F
KANSAS CITY    MOSUNNY   78  53  41 S14       30.06F
HILL CITY      SUNNY     83  46  27 S17G25    29.95F
WICHITA        MOSUNNY   78  48  34 S21G26    30.03F
DODGE CITY     SUNNY     80  43  26 S17G31    29.99F
OKLAHOMA CITY  PTSUNNY   77  49  37 SE14      30.07F
DALLAS         PTSUNNY   82  55  39 SE9       30.06F
AMARILLO       LGT RAIN  76  48  37 S17       30.02F
$$




USA.gov is the U.S. government's official web portal to all federal, state and local government web resources and services.